| time (UTC) | temp F | wind direction | speed knots | gust knots | rain 1hr in | rain 24hr in | rain mn in | humidity % | barometer mb |
| 20260506124500 | 48 | 218 | 0.0 | 0.0 | 0.00 | 0.00 | 0.00 | 83 | 1017.0 |
| 20260506124001 | 48 | 218 | 0.0 | 0.0 | 0.00 | 0.00 | 0.00 | 83 | 1016.9 |
| 20260506123001 | 49 | 218 | 0.0 | 0.0 | 0.00 | 0.00 | 0.00 | 83 | 1017.0 |
| 20260506122000 | 49 | 146 | 0.0 | 0.0 | 0.00 | 0.00 | 0.00 | 83 | 1016.8 |
| 20260506121501 | 49 | 146 | 0.0 | 0.0 | 0.00 | 0.00 | 0.00 | 82 | 1016.9 |
| 20260506121000 | 49 | 146 | 0.0 | 0.0 | 0.00 | 0.00 | 0.00 | 82 | 1016.9 |
| 20260506120502 | 49 | 146 | 0.0 | 0.0 | 0.00 | 0.00 | 0.00 | 82 | 1016.9 |
| 20260506115459 | 49 | 146 | 0.0 | 0.0 | 0.00 | 0.00 | 0.00 | 81 | 1017.0 |
| 20260506115000 | 49 | 147 | 0.0 | 0.0 | 0.00 | 0.00 | 0.00 | 81 | 1017.0 |
| 20260506114459 | 49 | 140 | 0.0 | 0.0 | 0.00 | 0.00 | 0.00 | 81 | 1017.0 |
| 20260506114000 | 49 | 140 | 0.0 | 0.0 | 0.00 | 0.00 | 0.00 | 81 | 1017.1 |
| 20260506113459 | 49 | 141 | 0.0 | 0.0 | 0.00 | 0.00 | 0.00 | 81 | 1017.1 |
| 20260506112959 | 49 | 124 | 0.0 | 0.0 | 0.00 | 0.00 | 0.00 | 81 | 1017.1 |
| 20260506111959 | 49 | 126 | 0.0 | 0.0 | 0.00 | 0.00 | 0.00 | 80 | 1017.2 |
| 20260506111002 | 49 | 126 | 0.0 | 0.0 | 0.00 | 0.00 | 0.00 | 81 | 1017.1 |
| 20260506110459 | 49 | 165 | 0.0 | 0.0 | 0.00 | 0.00 | 0.00 | 79 | 1017.2 |
| 20260506105500 | 49 | 165 | 0.0 | 0.0 | 0.00 | 0.00 | 0.00 | 78 | 1017.1 |
| 20260506103959 | 49 | 109 | 0.0 | 0.9 | 0.00 | 0.00 | 0.00 | 78 | 1017.1 |
| 20260506102959 | 50 | 136 | 0.0 | 0.9 | 0.00 | 0.00 | 0.00 | 78 | 1017.1 |
| 20260506102500 | 50 | 41 | 0.0 | 0.9 | 0.00 | 0.00 | 0.00 | 77 | 1017.1 |
| 20260506102000 | 50 | 40 | 0.0 | 0.9 | 0.00 | 0.00 | 0.00 | 77 | 1017.1 |
| 20260506101459 | 50 | 345 | 0.0 | 0.0 | 0.00 | 0.00 | 0.00 | 76 | 1017.1 |
| 20260506100959 | 50 | 345 | 0.0 | 0.9 | 0.00 | 0.00 | 0.00 | 76 | 1017.1 |
| 20260506100459 | 50 | 345 | 0.0 | 0.9 | 0.00 | 0.00 | 0.00 | 76 | 1017.1 |
| 20260506095500 | 50 | 1 | 0.0 | 0.9 | 0.00 | 0.00 | 0.00 | 75 | 1017.0 |
| 20260506094959 | 50 | 1 | 0.0 | 0.9 | 0.00 | 0.00 | 0.00 | 75 | 1017.1 |
| 20260506094459 | 50 | 110 | 0.0 | 0.0 | 0.00 | 0.00 | 0.00 | 74 | 1017.0 |
| 20260506094000 | 50 | 110 | 0.0 | 0.0 | 0.00 | 0.00 | 0.00 | 74 | 1017.0 |
| 20260506092959 | 51 | 110 | 0.0 | 0.9 | 0.00 | 0.00 | 0.00 | 74 | 1017.0 |
| 20260506092459 | 51 | 110 | 0.0 | 0.9 | 0.00 | 0.00 | 0.00 | 74 | 1017.0 |
| 20260506092000 | 51 | 110 | 0.0 | 0.9 | 0.00 | 0.00 | 0.00 | 74 | 1017.1 |
| 20260506091459 | 51 | 110 | 0.0 | 0.9 | 0.00 | 0.00 | 0.00 | 74 | 1017.2 |
| 20260506091000 | 51 | 116 | 0.0 | 0.9 | 0.00 | 0.00 | 0.00 | 74 | 1017.2 |
| 20260506090500 | 51 | 165 | 0.0 | 0.0 | 0.00 | 0.00 | 0.00 | 73 | 1017.3 |
| 20260506090001 | 51 | 165 | 0.0 | 0.0 | 0.00 | 0.00 | 0.00 | 73 | 1017.2 |
| 20260506085500 | 51 | 159 | 0.0 | 0.9 | 0.00 | 0.00 | 0.00 | 73 | 1017.3 |
| 20260506085000 | 51 | 158 | 0.0 | 0.9 | 0.00 | 0.00 | 0.00 | 73 | 1017.4 |
| 20260506084458 | 52 | 294 | 0.0 | 0.9 | 0.00 | 0.00 | 0.00 | 72 | 1017.3 |
| 20260506084000 | 52 | 245 | 0.0 | 0.9 | 0.00 | 0.00 | 0.00 | 73 | 1017.3 |
| 20260506082959 | 52 | 206 | 0.0 | 0.9 | 0.00 | 0.00 | 0.00 | 72 | 1017.4 |
| 20260506082459 | 52 | 243 | 0.0 | 0.9 | 0.00 | 0.00 | 0.00 | 72 | 1017.4 |
| 20260506082001 | 52 | 313 | 0.0 | 0.9 | 0.00 | 0.00 | 0.00 | 71 | 1017.5 |
| 20260506081458 | 52 | 269 | 0.0 | 0.9 | 0.00 | 0.00 | 0.00 | 71 | 1017.5 |
| 20260506081000 | 52 | 265 | 0.0 | 1.7 | 0.00 | 0.00 | 0.00 | 71 | 1017.5 |
| 20260506073500 | 53 | 36 | 0.0 | 2.6 | 0.00 | 0.00 | 0.00 | 70 | 1017.5 |
| 20260506073000 | 54 | 30 | 0.0 | 2.6 | 0.00 | 0.00 | 0.00 | 70 | 1017.4 |
| 20260506072500 | 54 | 309 | 0.0 | 1.7 | 0.00 | 0.00 | 0.00 | 70 | 1017.4 |
| 20260506072001 | 54 | 340 | 0.0 | 1.7 | 0.00 | 0.00 | 0.00 | 70 | 1017.3 |
| 20260506071500 | 54 | 264 | 0.0 | 1.7 | 0.00 | 0.00 | 0.00 | 70 | 1017.4 |
| 20260506071000 | 54 | 274 | 0.9 | 1.7 | 0.00 | 0.00 | 0.00 | 70 | 1017.2 |
| 20260506070500 | 54 | 348 | 0.9 | 4.3 | 0.00 | 0.00 | 0.00 | 70 | 1017.2 |
| 20260506062500 | 55 | 315 | 0.0 | 3.5 | 0.00 | 0.00 | 0.00 | 69 | 1016.9 |
| 20260506062001 | 55 | 250 | 0.0 | 3.5 | 0.00 | 0.00 | 0.00 | 69 | 1017.0 |
| 20260506061500 | 55 | 326 | 0.9 | 5.2 | 0.00 | 0.00 | 0.00 | 69 | 1017.0 |
| 20260506051000 | 55 | 246 | 0.0 | 1.7 | 0.00 | 0.00 | 0.00 | 68 | 1016.8 |
| 20260506050500 | 55 | 319 | 0.0 | 2.6 | 0.00 | 0.00 | 0.00 | 68 | 1016.7 |
| 20260506045002 | 56 | 356 | 0.0 | 2.6 | 0.00 | 0.00 | 0.00 | 68 | 1016.6 |
| 20260506044501 | 56 | 353 | 0.0 | 0.9 | 0.00 | 0.00 | 0.00 | 68 | 1016.5 |
| 20260506044000 | 56 | 309 | 0.0 | 1.7 | 0.00 | 0.00 | 0.00 | 68 | 1016.4 |
| 20260506043500 | 56 | 310 | 0.0 | 3.5 | 0.00 | 0.00 | 0.00 | 68 | 1016.4 |
| 20260506043002 | 56 | 1 | 0.0 | 3.5 | 0.00 | 0.00 | 0.00 | 68 | 1016.3 |
| 20260506042500 | 56 | 86 | 0.0 | 0.9 | 0.00 | 0.00 | 0.00 | 68 | 1016.3 |
| 20260506042001 | 56 | 302 | 0.0 | 0.9 | 0.00 | 0.00 | 0.00 | 68 | 1016.3 |
| 20260506041459 | 56 | 315 | 0.9 | 1.7 | 0.00 | 0.00 | 0.00 | 68 | 1016.1 |
| 20260506041001 | 56 | 347 | 0.9 | 3.5 | 0.00 | 0.00 | 0.00 | 68 | 1016.0 |
| 20260506040500 | 56 | 1 | 0.9 | 4.3 | 0.00 | 0.00 | 0.00 | 68 | 1016.0 |
| 20260506040002 | 56 | 327 | 0.0 | 4.3 | 0.00 | 0.00 | 0.00 | 67 | 1015.9 |
| 20260506035501 | 56 | 317 | 0.0 | 3.5 | 0.00 | 0.00 | 0.00 | 68 | 1015.8 |
| 20260506035001 | 56 | 290 | 0.9 | 5.2 | 0.00 | 0.00 | 0.00 | 68 | 1015.8 |
| 20260506034500 | 56 | 349 | 0.9 | 5.2 | 0.00 | 0.00 | 0.00 | 68 | 1015.7 |
| 20260506033500 | 56 | 303 | 0.9 | 4.3 | 0.00 | 0.00 | 0.00 | 68 | 1015.7 |
| 20260506032500 | 56 | 317 | 0.9 | 4.3 | 0.00 | 0.00 | 0.00 | 68 | 1015.5 |
| 20260506032001 | 56 | 308 | 1.7 | 5.2 | 0.00 | 0.00 | 0.00 | 68 | 1015.4 |
| 20260506030959 | 56 | 4 | 0.9 | 5.2 | 0.00 | 0.00 | 0.00 | 67 | 1015.3 |
| 20260506030502 | 56 | 340 | 0.9 | 4.3 | 0.00 | 0.00 | 0.00 | 67 | 1015.3 |
| 20260506030002 | 57 | 46 | 0.9 | 5.2 | 0.00 | 0.00 | 0.00 | 67 | 1015.2 |
| 20260506025501 | 57 | 347 | 1.7 | 5.2 | 0.00 | 0.00 | 0.00 | 67 | 1015.0 |
| 20260506025001 | 57 | 16 | 1.7 | 6.1 | 0.00 | 0.00 | 0.00 | 67 | 1014.9 |
| 20260506023501 | 57 | 134 | 0.9 | 6.1 | 0.00 | 0.00 | 0.00 | 66 | 1014.9 |
| 20260506022502 | 57 | 300 | 1.7 | 6.1 | 0.00 | 0.00 | 0.00 | 65 | 1014.7 |
| 20260506022001 | 57 | 338 | 1.7 | 5.2 | 0.00 | 0.00 | 0.00 | 65 | 1014.7 |
| 20260506021001 | 58 | 356 | 1.7 | 11.3 | 0.00 | 0.00 | 0.00 | 64 | 1014.6 |
| 20260506020002 | 58 | 360 | 2.6 | 7.8 | 0.00 | 0.00 | 0.00 | 63 | 1014.5 |
| 20260506015501 | 58 | 316 | 2.6 | 7.8 | 0.00 | 0.00 | 0.00 | 63 | 1014.5 |
| 20260506014501 | 58 | 289 | 2.6 | 7.0 | 0.00 | 0.00 | 0.00 | 63 | 1014.5 |
| 20260506014001 | 58 | 315 | 2.6 | 6.1 | 0.00 | 0.00 | 0.00 | 62 | 1014.5 |
| 20260506013501 | 58 | 342 | 1.7 | 7.8 | 0.00 | 0.00 | 0.00 | 61 | 1014.4 |
| 20260506013000 | 58 | 292 | 2.6 | 7.8 | 0.00 | 0.00 | 0.00 | 60 | 1014.5 |
| 20260506012001 | 59 | 280 | 2.6 | 6.1 | 0.00 | 0.00 | 0.00 | 58 | 1014.4 |
| 20260506011001 | 60 | 314 | 2.6 | 7.8 | 0.00 | 0.00 | 0.00 | 57 | 1014.4 |
| 20260506010500 | 60 | 231 | 2.6 | 7.8 | 0.00 | 0.00 | 0.00 | 56 | 1014.4 |
| 20260506004959 | 60 | 338 | 2.6 | 9.6 | 0.00 | 0.00 | 0.00 | 55 | 1014.4 |
| 20260506004458 | 60 | 236 | 2.6 | 9.6 | 0.00 | 0.00 | 0.00 | 55 | 1014.5 |
| 20260506003958 | 61 | 230 | 2.6 | 6.1 | 0.00 | 0.00 | 0.00 | 55 | 1014.4 |
| 20260506003459 | 60 | 333 | 3.5 | 7.8 | 0.00 | 0.00 | 0.00 | 54 | 1014.5 |
| 20260506002959 | 60 | 357 | 3.5 | 7.8 | 0.00 | 0.00 | 0.00 | 54 | 1014.4 |
| 20260506002459 | 61 | 127 | 3.5 | 9.6 | 0.00 | 0.00 | 0.00 | 54 | 1014.4 |
| 20260506002000 | 61 | 333 | 3.5 | 9.6 | 0.00 | 0.00 | 0.00 | 53 | 1014.4 |
| 20260506001459 | 61 | 248 | 3.5 | 9.6 | 0.00 | 0.00 | 0.00 | 52 | 1014.3 |
| 20260506000959 | 61 | 3 | 2.6 | 7.8 | 0.00 | 0.00 | 0.00 | 53 | 1014.3 |
| 20260505235959 | 62 | 297 | 2.6 | 9.6 | 0.00 | 0.00 | 0.00 | 52 | 1014.3 |
| 20260505235500 | 62 | 248 | 2.6 | 9.6 | 0.00 | 0.00 | 0.00 | 52 | 1014.2 |
| 20260505234959 | 62 | 115 | 3.5 | 7.8 | 0.00 | 0.00 | 0.00 | 53 | 1014.3 |
| 20260505234459 | 63 | 110 | 2.6 | 9.6 | 0.00 | 0.00 | 0.00 | 53 | 1014.3 |
| 20260505233959 | 63 | 287 | 2.6 | 8.7 | 0.00 | 0.00 | 0.00 | 55 | 1014.4 |
| 20260505233458 | 63 | 345 | 3.5 | 8.7 | 0.00 | 0.00 | 0.00 | 53 | 1014.4 |
| 20260505232959 | 64 | 308 | 2.6 | 7.8 | 0.00 | 0.00 | 0.00 | 52 | 1014.3 |
| 20260505232459 | 64 | 340 | 3.5 | 9.6 | 0.00 | 0.00 | 0.00 | 51 | 1014.3 |
| 20260505231459 | 64 | 307 | 3.5 | 9.6 | 0.00 | 0.00 | 0.00 | 51 | 1014.3 |
| 20260505230959 | 64 | 252 | 2.6 | 8.7 | 0.00 | 0.00 | 0.00 | 51 | 1014.3 |
| 20260505230459 | 64 | 290 | 3.5 | 9.6 | 0.00 | 0.00 | 0.00 | 51 | 1014.3 |
| 20260505230000 | 64 | 288 | 3.5 | 12.2 | 0.00 | 0.00 | 0.00 | 50 | 1014.4 |
| 20260505225500 | 65 | 331 | 3.5 | 12.2 | 0.00 | 0.00 | 0.00 | 50 | 1014.3 |
| 20260505224959 | 65 | 285 | 2.6 | 7.8 | 0.00 | 0.00 | 0.00 | 49 | 1014.5 |
| 20260505224459 | 66 | 345 | 2.6 | 9.6 | 0.00 | 0.00 | 0.00 | 49 | 1014.3 |
| 20260505223959 | 65 | 21 | 2.6 | 9.6 | 0.00 | 0.00 | 0.00 | 50 | 1014.3 |
| 20260505223459 | 66 | 321 | 2.6 | 7.0 | 0.00 | 0.00 | 0.00 | 48 | 1014.3 |
| 20260505223000 | 65 | 236 | 2.6 | 7.8 | 0.00 | 0.00 | 0.00 | 49 | 1014.3 |
| 20260505221959 | 65 | 300 | 3.5 | 9.6 | 0.00 | 0.00 | 0.00 | 49 | 1014.4 |
| 20260505221500 | 65 | 311 | 3.5 | 7.8 | 0.00 | 0.00 | 0.00 | 49 | 1014.4 |
| 20260505220959 | 65 | 202 | 2.6 | 7.8 | 0.00 | 0.00 | 0.00 | 49 | 1014.4 |
| 20260505220500 | 64 | 293 | 2.6 | 8.7 | 0.00 | 0.00 | 0.00 | 50 | 1014.5 |
| 20260505215959 | 64 | 274 | 2.6 | 8.7 | 0.00 | 0.00 | 0.00 | 49 | 1014.7 |
| 20260505215459 | 64 | 272 | 2.6 | 7.0 | 0.00 | 0.00 | 0.00 | 50 | 1014.6 |
| 20260505214959 | 64 | 227 | 2.6 | 7.8 | 0.00 | 0.00 | 0.00 | 51 | 1014.8 |
| 20260505214459 | 64 | 77 | 2.6 | 6.1 | 0.00 | 0.00 | 0.00 | 51 | 1014.9 |
| 20260505213959 | 63 | 314 | 2.6 | 7.0 | 0.00 | 0.00 | 0.00 | 52 | 1014.9 |
| 20260505213459 | 63 | 319 | 2.6 | 7.0 | 0.00 | 0.00 | 0.00 | 50 | 1015.1 |
| 20260505212959 | 63 | 325 | 2.6 | 8.7 | 0.00 | 0.00 | 0.00 | 51 | 1015.0 |
| 20260505211959 | 63 | 318 | 2.6 | 9.6 | 0.00 | 0.00 | 0.00 | 49 | 1015.0 |
| 20260505211459 | 63 | 232 | 1.7 | 7.0 | 0.00 | 0.00 | 0.00 | 50 | 1015.1 |
| 20260505210959 | 63 | 206 | 2.6 | 7.0 | 0.00 | 0.00 | 0.00 | 48 | 1015.1 |
| 20260505210459 | 63 | 265 | 2.6 | 6.1 | 0.00 | 0.00 | 0.00 | 47 | 1015.1 |
| 20260505205959 | 64 | 266 | 1.7 | 6.1 | 0.00 | 0.00 | 0.00 | 46 | 1015.1 |
| 20260505205459 | 64 | 306 | 2.6 | 8.7 | 0.00 | 0.00 | 0.00 | 47 | 1015.1 |
| 20260505204459 | 63 | 4 | 2.6 | 8.7 | 0.00 | 0.00 | 0.00 | 48 | 1015.0 |
| 20260505203459 | 63 | 29 | 2.6 | 8.7 | 0.00 | 0.00 | 0.00 | 48 | 1015.1 |
| 20260505202959 | 63 | 20 | 2.6 | 8.7 | 0.00 | 0.00 | 0.00 | 49 | 1015.2 |
| 20260505202459 | 63 | 252 | 2.6 | 7.8 | 0.00 | 0.00 | 0.00 | 49 | 1015.3 |
| 20260505201959 | 63 | 293 | 2.6 | 9.6 | 0.00 | 0.00 | 0.00 | 50 | 1015.2 |
| 20260505201459 | 63 | 40 | 2.6 | 9.6 | 0.00 | 0.00 | 0.00 | 50 | 1015.2 |
| 20260505200459 | 63 | 260 | 2.6 | 8.7 | 0.00 | 0.00 | 0.00 | 48 | 1015.1 |
| 20260505195959 | 64 | 331 | 2.6 | 9.6 | 0.00 | 0.00 | 0.00 | 47 | 1015.1 |
| 20260505195459 | 64 | 242 | 2.6 | 9.6 | 0.00 | 0.00 | 0.00 | 46 | 1015.1 |
| 20260505194959 | 64 | 302 | 2.6 | 7.8 | 0.00 | 0.00 | 0.00 | 45 | 1015.1 |
| 20260505194459 | 65 | 36 | 2.6 | 7.0 | 0.00 | 0.00 | 0.00 | 46 | 1015.3 |
| 20260505193959 | 65 | 297 | 2.6 | 7.0 | 0.00 | 0.00 | 0.00 | 45 | 1015.0 |
| 20260505193459 | 66 | 268 | 1.7 | 7.0 | 0.00 | 0.00 | 0.00 | 43 | 1015.0 |
| 20260505192959 | 66 | 354 | 1.7 | 6.1 | 0.00 | 0.00 | 0.00 | 43 | 1014.9 |
| 20260505192500 | 66 | 2 | 1.7 | 6.1 | 0.00 | 0.00 | 0.00 | 42 | 1014.9 |
| 20260505191959 | 66 | 336 | 2.6 | 7.0 | 0.00 | 0.00 | 0.00 | 43 | 1014.8 |
| 20260505191459 | 66 | 295 | 2.6 | 10.4 | 0.00 | 0.00 | 0.00 | 41 | 1014.8 |
| 20260505190959 | 66 | 262 | 2.6 | 10.4 | 0.00 | 0.00 | 0.00 | 42 | 1014.9 |
| 20260505190500 | 65 | 322 | 2.6 | 9.6 | 0.00 | 0.00 | 0.00 | 43 | 1014.9 |
| 20260505190001 | 65 | 269 | 2.6 | 9.6 | 0.00 | 0.00 | 0.00 | 43 | 1014.9 |
| 20260505185500 | 65 | 108 | 3.5 | 9.6 | 0.00 | 0.00 | 0.00 | 43 | 1014.8 |
| 20260505185000 | 66 | 242 | 3.5 | 10.4 | 0.00 | 0.00 | 0.00 | 43 | 1014.8 |
| 20260505184500 | 66 | 241 | 2.6 | 7.8 | 0.00 | 0.00 | 0.00 | 44 | 1014.7 |
| 20260505184000 | 66 | 248 | 2.6 | 7.8 | 0.00 | 0.00 | 0.00 | 43 | 1014.7 |
| 20260505183502 | 66 | 222 | 1.7 | 6.1 | 0.00 | 0.00 | 0.00 | 44 | 1014.6 |
| 20260505182500 | 65 | 252 | 2.6 | 7.0 | 0.00 | 0.00 | 0.00 | 46 | 1014.6 |
| 20260505182001 | 65 | 210 | 1.7 | 7.0 | 0.00 | 0.00 | 0.00 | 46 | 1014.7 |
| 20260505181501 | 64 | 179 | 1.7 | 6.1 | 0.00 | 0.00 | 0.00 | 46 | 1014.7 |
| 20260505181002 | 65 | 269 | 1.7 | 5.2 | 0.00 | 0.00 | 0.00 | 45 | 1014.6 |
| 20260505180501 | 65 | 199 | 1.7 | 7.0 | 0.00 | 0.00 | 0.00 | 48 | 1014.6 |
| 20260505175459 | 64 | 304 | 1.7 | 7.8 | 0.00 | 0.00 | 0.00 | 47 | 1014.6 |
| 20260505174959 | 64 | 205 | 1.7 | 7.8 | 0.00 | 0.00 | 0.00 | 49 | 1014.5 |
| 20260505174459 | 64 | 33 | 1.7 | 5.2 | 0.00 | 0.00 | 0.00 | 48 | 1014.6 |
| 20260505173959 | 64 | 234 | 0.9 | 4.3 | 0.00 | 0.00 | 0.00 | 49 | 1014.6 |
| 20260505173459 | 63 | 138 | 1.7 | 5.2 | 0.00 | 0.00 | 0.00 | 50 | 1014.5 |
| 20260505172459 | 63 | 255 | 0.9 | 6.1 | 0.00 | 0.00 | 0.00 | 50 | 1014.4 |
| 20260505171959 | 62 | 342 | 0.9 | 5.2 | 0.00 | 0.00 | 0.00 | 51 | 1014.5 |
| 20260505171459 | 62 | 307 | 0.9 | 3.5 | 0.00 | 0.00 | 0.00 | 52 | 1014.5 |
| 20260505171001 | 61 | 272 | 0.9 | 3.5 | 0.00 | 0.00 | 0.00 | 52 | 1014.4 |
| 20260505170500 | 61 | 90 | 0.0 | 2.6 | 0.00 | 0.00 | 0.00 | 53 | 1014.4 |
| 20260505170001 | 60 | 131 | 0.0 | 2.6 | 0.00 | 0.00 | 0.00 | 54 | 1014.5 |
| 20260505165459 | 60 | 266 | 0.0 | 2.6 | 0.00 | 0.00 | 0.00 | 54 | 1014.6 |
| 20260505165000 | 60 | 307 | 0.9 | 3.5 | 0.00 | 0.00 | 0.00 | 55 | 1014.7 |
| 20260505164458 | 60 | 314 | 0.9 | 3.5 | 0.00 | 0.00 | 0.00 | 55 | 1014.7 |
| 20260505164000 | 60 | 1 | 0.9 | 3.5 | 0.00 | 0.00 | 0.00 | 57 | 1014.7 |
| 20260505163459 | 59 | 323 | 0.9 | 3.5 | 0.00 | 0.00 | 0.00 | 57 | 1014.6 |
| 20260505162959 | 59 | 316 | 0.9 | 3.5 | 0.00 | 0.00 | 0.00 | 57 | 1014.7 |
| 20260505162500 | 59 | 360 | 0.9 | 4.3 | 0.00 | 0.00 | 0.00 | 58 | 1014.6 |
| 20260505161959 | 58 | 18 | 0.9 | 4.3 | 0.00 | 0.00 | 0.00 | 59 | 1014.7 |
| 20260505161459 | 58 | 244 | 0.9 | 3.5 | 0.00 | 0.00 | 0.00 | 59 | 1014.5 |
| 20260505160959 | 58 | 323 | 0.9 | 3.5 | 0.00 | 0.00 | 0.00 | 59 | 1014.6 |
| 20260505160458 | 57 | 284 | 0.0 | 2.6 | 0.00 | 0.00 | 0.00 | 60 | 1014.5 |
| 20260505153000 | 56 | 304 | 0.9 | 2.6 | 0.00 | 0.00 | 0.00 | 62 | 1014.3 |
| 20260505152459 | 56 | 311 | 0.0 | 2.6 | 0.00 | 0.00 | 0.00 | 62 | 1014.3 |
| 20260505151959 | 56 | 27 | 0.0 | 2.6 | 0.00 | 0.00 | 0.00 | 63 | 1014.3 |
| 20260505150959 | 55 | 317 | 0.0 | 0.9 | 0.00 | 0.00 | 0.00 | 64 | 1014.3 |
| 20260505150458 | 55 | 281 | 0.0 | 2.6 | 0.00 | 0.00 | 0.00 | 65 | 1014.3 |
| 20260505140459 | 50 | 196 | 0.0 | 0.0 | 0.00 | 0.00 | 0.00 | 77 | 1013.9 |
| 20260505124959 | 49 | 196 | 0.0 | 0.0 | 0.00 | 0.00 | 0.00 | 74 | 1013.8 |